Overview Statistics Trail Chart Weather Telemetry Raw packets
 

This is the latest recevied weather packets stored in our database for station/object N7WSS. If no packets are shown the sender has not sent any weather packets the latest 10 day(s).

<< 6 7 8 9 10 11 12 >>
Time Temp. Humidity Pressure Rain* Wind** Luminosity Snow
1788588734 25.56° C 62% 1014.2 hPa 0 mm - - -
1788588429 26.11° C 61% 1014.3 hPa 0 mm - - -
1788588126 26.11° C 61% 1014.3 hPa 0 mm - - -
1788587824 26.11° C 59% 1014.3 hPa 0 mm - - -
1788587519 26.11° C 59% 1014.2 hPa 0 mm - - -
1788587215 26.11° C 57% 1014.3 hPa 0 mm - - -
1788586911 26.67° C 56% 1014.2 hPa 0 mm - - -
1788586610 26.67° C 55% 1014.2 hPa 0 mm - - -
1788586305 27.22° C 55% 1014.2 hPa 0 mm - - -
1788586005 27.78° C 53% 1014 hPa 0 mm - - -
1788585700 27.22° C 54% 1014 hPa 0 mm - - -
1788585395 27.78° C 53% 1014.2 hPa 0 mm - - -
1788585092 27.22° C 53% 1014 hPa 0 mm - - -
1788584788 27.78° C 52% 1014 hPa 0 mm - - -
1788584485 27.78° C 52% 1014 hPa 0 mm - - -
1788584184 28.33° C 51% 1014 hPa 0 mm - - -
1788583880 28.33° C 50% 1013.8 hPa 0 mm - - -
1788583580 27.78° C 51% 1013.9 hPa 0 mm - - -
1788583280 27.78° C 53% 1014 hPa 0 mm - - -
1788582978 27.78° C 54% 1014.1 hPa 0 mm - - -
1788582674 27.78° C 54% 1013.9 hPa 0 mm - - -
1788582373 27.78° C 53% 1013.9 hPa 0 mm - - -
1788582068 28.33° C 52% 1013.9 hPa 0 mm - - -
1788581763 28.33° C 51% 1013.9 hPa 0 mm - - -
1788581459 28.33° C 51% 1014 hPa 0 mm - - -

* Rain latest hour (hover to see other rain measurements)
** Current wind speed in m/s (hover to see current wind gust speed)